Location: London
(51.5170°N, 0.1050°W)
Time: 05:59:18
(UTC+00:00)

ISS - Visible Passes

Search period start: 16 November 2025 00:00
Search period end: 26 November 2025 00:00
Orbit: 415 x 420 km, 51.6° (Epoch: 15 November)

Date Brightness Start Highest point End Pass type
(mag) Time Alt. Az. Time Alt. Az. Time Alt. Az.
16 Nov -3.0 17:59:58 10° SW 18:03:04 36° SSE 18:03:23 35° SE visible
17 Nov -2.3 17:12:13 10° SSW 17:15:04 26° SSE 17:17:13 14° E visible
17 Nov -2.0 18:48:11 10° WSW 18:50:08 32° WSW 18:50:08 32° WSW visible
18 Nov -3.7 18:00:06 10° WSW 18:03:24 62° SSE 18:03:54 53° ESE visible
18 Nov -0.1 19:36:48 10° W 19:36:49 10° W 19:36:49 10° W visible
19 Nov -3.2 17:12:03 10° SW 17:15:16 47° SSE 17:17:38 17° E visible
19 Nov -2.0 18:48:35 10° W 18:50:33 32° W 18:50:33 32° W visible
20 Nov -3.9 18:00:22 10° W 18:03:44 87° SSE 18:04:13 63° E visible
21 Nov -3.7 17:12:10 10° WSW 17:15:31 75° SSE 17:17:52 18° E visible
21 Nov -1.9 18:48:55 10° W 18:50:47 30° W 18:50:47 30° W visible
22 Nov -3.9 18:00:39 10° W 18:04:01 86° N 18:04:25 67° E visible
23 Nov -3.8 17:12:21 10° W 17:15:43 87° N 17:18:03 18° E visible
23 Nov -1.8 18:49:08 10° W 18:50:58 29° W 18:50:58 29° W visible
24 Nov -3.9 18:00:49 10° W 18:04:11 82° S 18:04:36 65° ESE visible
25 Nov -3.8 17:12:29 10° W 17:15:51 89° NNE 17:18:16 17° E visible
25 Nov -1.7 18:49:17 10° W 18:51:11 28° WSW 18:51:11 28° WSW visible
